Regional Weather Roundup
Issued by NWS

Home | Current Version | Previous Version | Text Only | Print | Product List | Glossary On
Versions: 1 2 3 4 5 6 7 8 9 10 11 12 13 14 15 16 17 18 19 20 21 22 23 24 25 26 27 28 29 30 31 32 33 34 35 36 37 38 39 40 41 42 43 44 45 46 47 48 49 50
000
ASUS43 KLSX 282257
RWRMO

WEATHER SUMMARY FOR MISSOURI
NATIONAL WEATHER SERVICE SPRINGFIELD MO
600 PM CDT FRI APR 28 2017

NOTE: "FAIR" INDICATES FEW OR NO CLOUDS BELOW 12,000 FEET WITH NO
       SIGNIFICANT WEATHER AND/OR OBSTRUCTIONS TO VISIBILITY.
       CURRENT SKY AND/OR WEATHER CONDITIONS ARE NOT AVAILABLE FOR
       CHILLICOTHE AND FARMINGTON.

MOZ001>031-035>038-043-044-053-054-290000-
...NORTHERN AND WESTERN MISSOURI...

CITY           SKY/WX    TMP DP  RH WIND       PRES   REMARKS
KANSAS CTY INT CLOUDY    51  50  96 NE16      29.75R
LEE`S SUMMIT   MOSUNNY   64  57  78 CALM      29.73R
ST JOSEPH      CLOUDY    47  46  97 N12       29.80R
CHILLICOTHE      N/A     48  46  93 N6        29.81R
KIRKSVILLE     CLOUDY    49  31  49 NE12      29.80R HAZE

$$
MOZ066>068-077>081-088>096-101>105-290000-
...SOUTHWEST MISSOURI...

CITY           SKY/WX    TMP DP  RH WIND       PRES   REMARKS
SPRINGFIELD    CLOUDY    63  61  93 S7        29.73R FOG
JOPLIN         CLOUDY    70  61  73 NE3       29.72R
BRANSON        CLOUDY    63  63 100 CALM      29.75R FOG

$$
MOZ032>034-039>042-045>050-055>058-069>072-290000-
...CENTRAL MISSOURI...

CITY           SKY/WX    TMP DP  RH WIND       PRES   REMARKS
COLUMBIA       NOT AVBL
JEFFERSON CITY CLOUDY    62  57  83 E7        29.74R
ROLLA          CLOUDY    58  58 100 SE7       29.75R FOG
SEDALIA        CLOUDY    62  60  93 SE3       29.74R

$$
MOZ051-052-059>065-290000-
...EAST CENTRAL MISSOURI...

CITY           SKY/WX    TMP DP  RH WIND       PRES   REMARKS
ST LOUIS INTL  CLOUDY    59  55  87 E13       29.78S
SPIRIT OF STL  CLOUDY    59  57  93 E8        29.77S

$$
MOZ072>076-082>087-097>100-106>115-290000-
...SOUTH CENTRAL AND SOUTHEAST MISSOURI...

CITY           SKY/WX    TMP DP  RH WIND       PRES   REMARKS
CAPE GIRARDEAU CLOUDY    73  69  87 SW6       29.77R
POPLAR BLUFF   CLOUDY    69  68  96 NW3       29.76R
WEST PLAINS    CLOUDY    64  63  96 S6        29.77R

$$



USA.gov is the U.S. government's official web portal to all federal, state and local government web resources and services.